Temp
-19 -19 -18 -18 -18 -17 -17 -17 -17 -16 -16 -16 -16 -16 -16 -16 -15 -15 -15 -15 -14 -15 -14 -14 -14 -14 -14 -13 -13 -13 -13 -13 -13 -13 -12 -12 -12 -12 -12 -12 -12 -12 -12 -11 -11 -11 -12 -12 -12 -12 -12 -12
-20 -19 -19 -19 -18 -18 -18 -18 -17 -17 -17 -17 -16 -17 -17 -16 -16 -16 -15 -15 -15 -15 -15 -15 -15 -14 -14 -14 -14 -14 -13 -13 -13 -13 -13 -13 -12 -12 -12 -12 -12 -12 -12 -12 -11 -11 -12 -12 -12 -12 -12 -12
-21 -20 -20 -20 -19 -19 -19 -18 -18 -18 -18 -17 -17 -17 -17 -17 -17 -16 -16 -16 -16 -15 -15 -15 -15 -15 -15 -15 -15 -14 -14 -14 -13 -13 -13 -13 -13 -13 -12 -12 -12 -12 -12 -12 -12 -12 -11 -12 -12 -12 -12 -12
-22 -22 -21 -21 -20 -20 -20 -20 -19 -19 -19 -19 -18 -18 -18 -17 -17 -17 -17 -16 -16 -16 -16 -16 -16 -16 -16 -16 -15 -15 -15 -14 -14 -14 -14 -14 -13 -13 -13 -13 -12 -12 -12 -12 -12 -12 -11 -12 -12 -13 -13 -13
-23 -23 -22 -22 -22 -21 -21 -21 -20 -20 -20 -20 -19 -19 -18 -18 -18 -17 -17 -17 -17 -17 -17 -16 -16 -16 -16 -16 -16 -16 -16 -15 -15 -14 -14 -14 -14 -14 -13 -13 -13 -13 -13 -13 -12 -12 -12 -12 -12 -12 -13 -13
-24 -23 -23 -23 -22 -22 -22 -22 -21 -21 -21 -20 -20 -19 -19 -19 -19 -18 -18 -17 -17 -17 -17 -17 -17 -17 -17 -17 -17 -16 -16 -16 -15 -15 -15 -15 -15 -14 -14 -14 -13 -13 -13 -13 -13 -13 -12 -12 -12 -12 -13 -13
-24 -24 -24 -23 -23 -23 -23 -22 -22 -22 -21 -21 -21 -20 -20 -20 -19 -19 -18 -18 -18 -18 -17 -18 -18 -17 -17 -17 -17 -17 -17 -16 -16 -16 -16 -15 -15 -15 -14 -14 -14 -14 -14 -13 -13 -13 -13 -13 -12 -12 -12 -13
-25 -25 -24 -24 -23 -23 -23 -23 -23 -23 -22 -22 -21 -21 -21 -20 -20 -20 -19 -19 -18 -18 -18 -18 -18 -18 -18 -18 -17 -17 -17 -17 -17 -17 -16 -16 -16 -15 -15 -15 -15 -15 -14 -14 -14 -14 -14 -13 -13 -13 -12 -13
-25 -25 -25 -24 -24 -24 -24 -24 -23 -23 -23 -23 -22 -22 -22 -21 -21 -20 -20 -19 -19 -19 -18 -18 -18 -18 -18 -18 -18 -18 -18 -17 -17 -17 -17 -17 -16 -16 -16 -16 -15 -15 -15 -15 -14 -14 -14 -14 -13 -13 -13 -13
-26 -25 -25 -25 -25 -24 -24 -24 -24 -24 -23 -23 -23 -22 -22 -22 -22 -21 -21 -20 -20 -19 -19 -19 -19 -19 -19 -19 -19 -18 -18 -18 -18 -18 -18 -18 -17 -17 -17 -17 -17 -16 -15 -15 -15 -14 -14 -14 -14 -14 -13 -13
-26 -26 -25 -25 -25 -25 -25 -25 -25 -24 -24 -23 -23 -23 -22 -22 -22 -22 -21 -21 -21 -20 -20 -19 -19 -19 -19 -19 -19 -19 -19 -18 -18 -18 -18 -18 -18 -18 -18 -17 -17 -17 -16 -15 -15 -15 -15 -15 -14 -14 -14 -14
-27 -26 -26 -26 -25 -25 -25 -25 -25 -25 -24 -24 -23 -23 -23 -23 -22 -22 -22 -22 -21 -21 -21 -20 -20 -19 -19 -19 -19 -19 -19 -19 -19 -18 -18 -19 -19 -18 -18 -18 -17 -17 -17 -16 -15 -15 -15 -15 -15 -14 -14 -14
-27 -27 -27 -26 -26 -26 -25 -25 -25 -25 -25 -24 -24 -24 -23 -23 -23 -23 -22 -22 -22 -22 -21 -21 -21 -20 -20 -19 -19 -19 -19 -19 -19 -19 -19 -19 -19 -19 -18 -18 -18 -17 -17 -17 -16 -16 -15 -15 -15 -15 -14 -14
-27 -27 -27 -27 -26 -26 -26 -25 -25 -25 -25 -24 -24 -24 -24 -23 -23 -23 -23 -22 -22 -22 -22 -21 -21 -21 -20 -20 -19 -19 -19 -19 -19 -19 -19 -19 -19 -19 -18 -18 -18 -18 -18 -18 -18 -17 -16 -16 -15 -15 -15 -15
-28 -28 -27 -27 -27 -27 -26 -26 -25 -25 -25 -25 -24 -24 -24 -24 -23 -23 -23 -23 -23 -22 -22 -22 -22 -21 -21 -21 -20 -20 -19 -20 -20 -20 -20 -19 -19 -19 -19 -19 -18 -18 -18 -18 -18 -18 -17 -17 -16 -16 -15 -15
-28 -28 -28 -27 -27 -27 -27 -26 -26 -25 -25 -25 -25 -24 -24 -24 -24 -23 -23 -23 -23 -23 -22 -22 -22 -22 -21 -21 -21 -20 -20 -20 -20 -20 -20 -20 -20 -19 -19 -19 -19 -18 -18 -18 -18 -18 -18 -18 -18 -17 -16 -15
-29 -29 -28 -28 -28 -28 -27 -27 -27 -26 -26 -25 -25 -25 -24 -24 -24 -24 -23 -23 -23 -23 -23 -22 -22 -22 -22 -22 -21 -21 -20 -20 -20 -20 -20 -20 -20 -20 -19 -19 -19 -19 -19 -18 -18 -19 -18 -18 -18 -18 -17 -16
-29 -29 -29 -29 -28 -28 -28 -28 -28 -27 -27 -26 -26 -25 -25 -25 -24 -24 -24 -24 -23 -23 -23 -23 -23 -22 -22 -22 -22 -21 -21 -20 -20 -20 -20 -20 -20 -20 -20 -19 -19 -19 -19 -19 -19 -19 -19 -19 -18 -18 -18 -18
-29 -29 -29 -29 -29 -28 -28 -28 -28 -28 -27 -27 -27 -27 -26 -25 -25 -24 -24 -24 -24 -24 -23 -23 -23 -23 -22 -22 -22 -22 -21 -21 -21 -20 -20 -20 -20 -20 -20 -20 -20 -19 -19 -19 -19 -19 -19 -19 -19 -19 -19 -19
-29 -29 -29 -29 -29 -29 -29 -28 -28 -28 -28 -28 -27 -27 -27 -27 -26 -25 -25 -24 -24 -24 -24 -23 -23 -23 -23 -22 -22 -22 -22 -21 -21 -21 -21 -20 -20 -20 -20 -20 -20 -20 -19 -19 -19 -19 -19 -19 -19 -19 -19 -19
-29 -29 -29 -29 -29 -29 -29 -29 -28 -28 -28 -28 -28 -27 -27 -27 -27 -26 -26 -25 -25 -24 -24 -24 -23 -23 -23 -23 -22 -22 -22 -22 -22 -21 -21 -21 -20 -20 -20 -20 -20 -20 -20 -20 -19 -19 -19 -19 -19 -19 -19 -19
-30 -30 -30 -30 -29 -29 -29 -29 -29 -29 -28 -28 -28 -28 -28 -27 -27 -27 -27 -26 -25 -25 -24 -24 -24 -24 -23 -23 -23 -22 -22 -22 -22 -22 -22 -21 -21 -21 -20 -20 -20 -20 -20 -20 -20 -19 -19 -20 -19 -19 -19 -19
-30 -30 -30 -30 -30 -30 -29 -29 -29 -29 -29 -29 -29 -29 -28 -28 -27 -27 -27 -27 -26 -26 -25 -25 -24 -24 -24 -23 -23 -23 -22 -22 -22 -22 -22 -22 -21 -21 -21 -20 -20 -20 -20 -20 -20 -20 -20 -20 -20 -20 -20 -20
-31 -31 -31 -31 -31 -30 -30 -30 -29 -29 -29 -29 -29 -29 -29 -29 -28 -28 -27 -27 -27 -26 -26 -25 -25 -24 -24 -24 -24 -23 -23 -23 -22 -22 -22 -22 -22 -22 -21 -21 -21 -21 -20 -20 -20 -20 -20 -20 -20 -20 -20 -20
-31 -31 -31 -31 -31 -31 -31 -30 -30 -30 -30 -30 -30 -29 -29 -29 -29 -28 -28 -28 -27 -27 -27 -26 -26 -25 -25 -25 -24 -24 -23 -23 -23 -22 -22 -22 -22 -22 -22 -21 -21 -21 -21 -20 -20 -20 -21 -21 -20 -20 -20 -20
-31 -31 -31 -31 -31 -31 -31 -31 -30 -30 -30 -30 -30 -30 -29 -29 -29 -29 -29 -28 -28 -28 -27 -27 -26 -26 -25 -25 -25 -24 -24 -24 -23 -23 -23 -22 -22 -22 -22 -22 -21 -21 -21 -21 -21 -21 -21 -21 -21 -21 -20 -20
-31 -31 -31 -31 -31 -31 -31 -31 -31 -31 -31 -31 -31 -30 -30 -30 -29 -29 -29 -29 -28 -28 -28 -27 -27 -27 -26 -26 -25 -25 -25 -24 -24 -23 -23 -23 -22 -22 -22 -22 -22 -22 -21 -21 -21 -21 -21 -21 -21 -21 -21 -20
-32 -32 -32 -32 -31 -31 -31 -31 -31 -31 -31 -31 -30 -31 -31 -30 -30 -30 -29 -29 -29 -29 -28 -28 -28 -27 -27 -27 -26 -26 -25 -25 -25 -24 -24 -23 -23 -23 -22 -22 -22 -22 -22 -22 -21 -21 -21 -21 -21 -21 -21 -21
-32 -32 -32 -32 -32 -31 -31 -31 -31 -31 -31 -31 -31 -31 -31 -31 -31 -30 -30 -30 -29 -29 -29 -28 -28 -28 -28 -27 -27 -27 -26 -26 -25 -25 -24 -24 -24 -23 -23 -23 -22 -22 -22 -22 -22 -22 -21 -21 -22 -21 -22 -22
-32 -33 -33 -32 -32 -32 -31 -31 -31 -31 -31 -31 -31 -31 -31 -31 -31 -31 -30 -30 -30 -30 -29 -29 -28 -28 -28 -28 -28 -27 -27 -26 -26 -26 -25 -25 -24 -24 -23 -23 -23 -23 -22 -22 -22 -22 -22 -22 -22 -22 -22 -22
-32 -33 -33 -33 -32 -32 -31 -31 -31 -31 -31 -31 -31 -31 -31 -31 -31 -31 -31 -30 -30 -30 -30 -30 -29 -29 -28 -28 -28 -28 -28 -27 -27 -26 -26 -25 -25 -25 -24 -24 -23 -23 -23 -23 -22 -22 -22 -22 -22 -22 -22 -22
Height
5678 5678 5679 5681 5682 5684 5685 5687 5688 5689 5690 5691 5692 5693 5695 5697 5699 5700 5701 5703 5705 5707 5710 5712 5716 5719 5719 5722 5724 5726 5727 5730 5733 5737 5740 5743 5745 5746 5748 5751 5753 5754 5756 5759 5761 5764 5767 5769 5772 5775 5778 5782
5665 5666 5667 5669 5670 5671 5672 5674 5676 5678 5679 5681 5682 5683 5685 5687 5689 5691 5693 5694 5696 5698 5701 5704 5707 5710 5711 5714 5716 5717 5719 5722 5726 5729 5732 5736 5737 5739 5741 5744 5746 5747 5749 5751 5755 5757 5760 5763 5766 5768 5771 5775
5652 5654 5656 5657 5658 5659 5660 5662 5664 5666 5668 5670 5672 5673 5675 5677 5678 5681 5683 5686 5688 5690 5692 5695 5698 5700 5702 5705 5707 5709 5711 5714 5718 5721 5724 5727 5729 5731 5734 5736 5738 5740 5742 5744 5747 5750 5754 5757 5759 5761 5764 5767
5639 5641 5643 5644 5645 5647 5649 5650 5652 5654 5656 5658 5661 5662 5664 5666 5668 5670 5673 5676 5678 5681 5683 5686 5689 5691 5694 5696 5698 5701 5703 5706 5710 5712 5715 5719 5720 5723 5726 5729 5731 5733 5735 5737 5740 5743 5747 5750 5753 5755 5757 5760
5626 5628 5630 5632 5633 5635 5637 5639 5640 5642 5644 5646 5649 5651 5653 5656 5658 5660 5663 5665 5668 5671 5674 5677 5680 5682 5685 5687 5690 5693 5695 5698 5701 5704 5707 5710 5711 5714 5718 5721 5724 5726 5728 5731 5734 5736 5739 5743 5746 5748 5751 5754
5614 5616 5618 5619 5621 5622 5624 5626 5628 5630 5632 5634 5637 5639 5642 5645 5648 5650 5652 5655 5658 5661 5665 5667 5670 5673 5675 5678 5681 5685 5687 5690 5693 5695 5698 5702 5704 5706 5710 5713 5716 5718 5721 5724 5727 5729 5732 5736 5738 5741 5744 5748
5603 5605 5606 5608 5609 5611 5612 5614 5616 5618 5621 5623 5625 5628 5631 5634 5636 5639 5642 5644 5647 5651 5655 5658 5661 5664 5666 5669 5672 5675 5678 5681 5684 5687 5690 5694 5697 5700 5702 5705 5708 5711 5713 5716 5719 5721 5723 5727 5730 5733 5736 5740
5592 5594 5596 5597 5598 5600 5601 5603 5604 5606 5609 5611 5613 5617 5620 5622 5625 5628 5631 5634 5637 5640 5644 5648 5651 5654 5657 5660 5663 5666 5669 5673 5676 5679 5682 5685 5689 5693 5695 5697 5700 5703 5706 5708 5711 5713 5715 5718 5721 5725 5728 5732
5580 5583 5585 5587 5588 5589 5590 5592 5593 5595 5597 5599 5601 5606 5610 5611 5613 5616 5620 5623 5627 5631 5634 5638 5641 5644 5647 5651 5654 5657 5660 5664 5668 5671 5674 5677 5681 5685 5688 5690 5692 5694 5697 5700 5703 5705 5708 5710 5713 5717 5721 5725
5569 5571 5573 5575 5577 5578 5580 5581 5582 5583 5585 5587 5590 5595 5599 5600 5602 5606 5610 5613 5617 5621 5624 5627 5630 5633 5638 5641 5644 5648 5651 5655 5659 5662 5666 5669 5673 5677 5680 5683 5685 5686 5688 5691 5695 5698 5701 5703 5705 5709 5714 5718
5557 5559 5561 5563 5565 5567 5568 5569 5569 5570 5572 5575 5578 5583 5587 5589 5591 5595 5599 5603 5607 5610 5614 5616 5619 5623 5627 5631 5634 5638 5642 5646 5650 5654 5658 5661 5665 5668 5671 5675 5678 5679 5680 5683 5686 5690 5693 5695 5698 5701 5706 5711
5547 5548 5550 5552 5553 5555 5555 5556 5557 5559 5561 5564 5567 5572 5576 5578 5581 5585 5589 5593 5597 5600 5603 5605 5608 5612 5617 5620 5624 5629 5633 5637 5641 5645 5650 5653 5656 5659 5663 5666 5669 5672 5674 5676 5679 5682 5685 5688 5690 5694 5698 5703
5538 5539 5541 5542 5543 5544 5544 5546 5548 5550 5552 5555 5558 5562 5565 5569 5572 5575 5579 5583 5586 5589 5592 5595 5598 5602 5606 5610 5614 5619 5623 5628 5632 5636 5640 5644 5648 5651 5654 5658 5660 5664 5667 5668 5670 5673 5677 5680 5684 5687 5691 5695
5530 5530 5531 5533 5534 5535 5536 5538 5541 5543 5545 5548 5551 5553 5556 5559 5562 5566 5570 5573 5576 5579 5582 5585 5589 5593 5596 5600 5604 5609 5614 5619 5623 5626 5630 5634 5639 5642 5646 5649 5652 5656 5659 5661 5663 5665 5669 5672 5676 5680 5683 5687
5522 5523 5523 5524 5526 5527 5528 5530 5532 5535 5537 5539 5542 5545 5547 5550 5553 5557 5560 5563 5566 5569 5573 5576 5579 5583 5586 5589 5593 5599 5604 5609 5613 5616 5620 5625 5629 5633 5637 5641 5644 5648 5651 5653 5655 5658 5661 5663 5667 5670 5674 5679
5514 5514 5515 5517 5518 5519 5520 5522 5524 5526 5528 5530 5532 5535 5538 5540 5543 5547 5550 5553 5556 5559 5563 5566 5569 5573 5576 5579 5583 5588 5594 5598 5603 5606 5610 5615 5619 5623 5627 5632 5636 5639 5643 5645 5648 5651 5654 5656 5659 5661 5664 5670
5504 5505 5506 5508 5509 5510 5512 5513 5514 5516 5518 5520 5522 5525 5528 5530 5533 5537 5540 5543 5546 5549 5553 5556 5559 5563 5566 5569 5573 5578 5583 5587 5592 5597 5601 5605 5609 5614 5618 5623 5627 5631 5635 5638 5641 5644 5647 5651 5654 5654 5656 5659
5494 5495 5496 5497 5498 5500 5501 5503 5504 5505 5507 5509 5511 5514 5517 5520 5523 5527 5531 5534 5537 5539 5542 5545 5549 5553 5556 5559 5563 5567 5572 5577 5582 5587 5591 5595 5599 5604 5608 5613 5617 5621 5626 5630 5633 5637 5640 5644 5647 5650 5650 5650
5488 5487 5487 5487 5487 5488 5490 5491 5492 5494 5496 5498 5500 5502 5505 5508 5512 5516 5521 5524 5527 5529 5532 5536 5539 5543 5546 5550 5553 5558 5563 5568 5572 5577 5581 5585 5590 5594 5598 5602 5607 5611 5616 5621 5625 5628 5632 5635 5638 5642 5645 5645
5481 5480 5479 5478 5478 5478 5479 5480 5481 5483 5485 5487 5489 5492 5494 5497 5499 5504 5509 5513 5516 5518 5522 5526 5530 5533 5536 5540 5545 5550 5554 5558 5562 5566 5570 5575 5579 5583 5587 5591 5596 5601 5606 5611 5615 5619 5624 5627 5630 5633 5636 5639
5474 5473 5472 5471 5470 5469 5468 5469 5470 5472 5474 5476 5479 5481 5483 5485 5487 5491 5496 5500 5503 5507 5512 5516 5520 5523 5526 5531 5536 5541 5545 5549 5553 5556 5560 5564 5568 5573 5577 5582 5587 5591 5596 5601 5606 5610 5615 5618 5621 5625 5628 5630
5468 5466 5465 5463 5461 5460 5460 5460 5460 5462 5464 5466 5468 5470 5472 5474 5477 5481 5485 5488 5491 5495 5500 5505 5510 5513 5517 5521 5526 5530 5535 5539 5543 5546 5550 5554 5557 5562 5567 5572 5577 5581 5585 5591 5596 5601 5605 5609 5612 5616 5619 5622
5462 5460 5458 5456 5454 5452 5452 5451 5452 5453 5454 5455 5457 5459 5461 5463 5467 5470 5473 5476 5479 5484 5488 5494 5499 5503 5507 5511 5515 5519 5524 5528 5532 5536 5540 5544 5548 5552 5557 5563 5567 5571 5575 5580 5585 5591 5595 5599 5603 5607 5611 5615
5456 5453 5451 5448 5446 5444 5444 5444 5444 5444 5445 5445 5446 5448 5450 5453 5455 5459 5462 5466 5469 5473 5477 5482 5486 5491 5496 5500 5503 5508 5511 5515 5520 5525 5529 5534 5538 5542 5547 5552 5557 5560 5564 5569 5575 5580 5584 5588 5593 5598 5602 5607
5449 5446 5443 5441 5438 5437 5438 5438 5438 5438 5437 5437 5437 5438 5440 5442 5445 5449 5452 5455 5458 5461 5465 5469 5473 5478 5482 5486 5491 5495 5499 5504 5509 5513 5518 5523 5528 5532 5537 5542 5546 5549 5553 5558 5564 5569 5573 5578 5583 5589 5593 5597
5441 5437 5435 5434 5432 5432 5432 5432 5432 5432 5432 5431 5430 5430 5432 5433 5436 5439 5441 5444 5446 5450 5453 5457 5461 5465 5469 5473 5478 5483 5487 5492 5497 5502 5506 5511 5516 5521 5526 5532 5535 5538 5543 5548 5554 5557 5561 5568 5574 5578 5583 5588
5432 5430 5427 5426 5426 5426 5426 5425 5425 5425 5426 5425 5425 5425 5425 5426 5427 5429 5431 5433 5435 5439 5442 5446 5450 5454 5457 5461 5466 5471 5476 5481 5485 5490 5494 5499 5504 5510 5515 5521 5525 5527 5531 5538 5543 5545 5551 5559 5564 5566 5573 5578
5425 5423 5421 5420 5420 5420 5419 5419 5418 5418 5419 5420 5420 5420 5420 5419 5419 5419 5421 5423 5425 5428 5431 5434 5439 5443 5446 5449 5453 5458 5463 5469 5472 5476 5481 5486 5492 5497 5502 5508 5513 5515 5520 5527 5532 5534 5542 5549 5550 5555 5564 5567
5420 5417 5415 5414 5414 5414 5414 5414 5413 5413 5413 5414 5414 5414 5414 5414 5413 5413 5414 5415 5416 5418 5421 5424 5427 5431 5435 5438 5441 5444 5450 5455 5459 5463 5469 5473 5479 5484 5489 5495 5500 5504 5509 5515 5519 5523 5531 5537 5539 5547 5553 5554
5417 5413 5411 5410 5409 5409 5409 5409 5408 5408 5408 5408 5408 5408 5408 5408 5408 5408 5408 5409 5409 5410 5411 5413 5416 5419 5423 5426 5429 5433 5437 5442 5446 5451 5456 5460 5466 5471 5477 5483 5488 5494 5497 5501 5506 5511 5520 5525 5529 5537 5541 5542
5414 5411 5408 5406 5406 5405 5406 5405 5404 5404 5403 5403 5403 5403 5403 5403 5402 5402 5403 5403 5403 5403 5403 5404 5405 5407 5411 5414 5418 5421 5426 5430 5433 5437 5443 5448 5454 5459 5463 5469 5476 5483 5486 5488 5493 5500 5507 5513 5517 5524 5528 5531
Wind_Speed
73 73 74 75 76 77 79 80 81 83 85 85 83 81 79 78 78 78 79 80 78 76 74 73 71 68 68 70 71 70 69 70 69 69 68 66 64 64 65 67 68 68 68 68 68 66 63 63 63 62 61 59
73 74 75 76 77 78 80 81 80 81 83 85 85 84 82 82 82 81 81 81 81 80 79 78 76 75 73 71 72 71 71 72 72 70 69 68 68 67 65 65 68 70 70 70 69 69 66 63 63 63 62 61
72 74 75 76 77 78 79 80 81 80 80 81 83 84 83 83 84 83 82 82 82 82 82 81 80 78 77 75 75 74 73 73 73 73 71 68 68 70 69 67 67 68 71 71 71 70 69 66 63 63 63 63
72 72 74 76 76 77 77 78 79 79 79 79 80 82 83 83 84 84 83 82 81 82 82 82 81 80 78 77 77 76 75 74 73 74 73 70 69 69 70 71 70 68 69 71 72 72 71 69 66 64 63 63
71 72 73 75 76 77 77 77 78 78 79 79 80 82 83 83 83 84 84 83 82 81 81 81 81 80 79 78 77 76 76 75 75 74 73 71 71 71 70 71 72 71 69 70 71 73 72 71 69 66 64 63
71 72 73 75 76 77 77 78 78 79 80 80 81 82 83 83 83 84 84 84 83 82 81 80 80 79 79 79 77 76 76 76 75 75 74 72 71 72 71 70 71 71 71 70 69 71 73 73 72 69 66 63
70 71 72 74 76 76 77 78 79 80 81 81 82 82 83 84 84 84 85 84 84 82 81 80 79 78 78 78 77 75 75 76 75 74 74 74 73 72 72 71 70 70 71 71 70 69 71 72 73 73 70 67
70 71 72 73 75 76 77 77 78 79 80 81 82 82 82 83 84 85 85 84 84 83 81 80 78 78 77 76 77 76 75 74 74 73 73 73 73 72 73 73 72 71 71 72 72 71 71 71 72 73 73 71
71 71 71 73 75 76 76 77 77 78 79 80 82 82 81 82 84 84 84 84 84 83 82 81 79 78 76 75 75 75 75 74 73 72 72 72 71 69 70 71 71 73 73 73 74 74 73 72 73 73 73 73
71 71 72 73 74 76 76 76 77 78 79 80 81 81 81 82 82 83 83 83 83 83 82 81 80 78 76 75 74 74 74 74 73 71 70 71 68 64 64 63 62 67 72 72 73 75 75 74 74 73 72 72
72 72 72 73 75 76 77 77 78 79 80 80 81 81 81 82 82 82 82 82 82 82 82 81 81 80 78 76 74 73 73 73 73 72 70 68 67 65 64 62 60 63 68 71 71 71 73 74 75 75 73 71
71 73 74 74 75 76 78 79 80 81 81 81 82 81 81 81 81 81 81 81 81 81 81 81 81 81 80 78 76 74 73 72 72 72 71 69 69 70 69 67 67 66 65 69 71 71 70 71 73 75 75 73
69 71 73 75 77 78 79 80 81 82 82 82 82 81 81 81 81 81 81 80 80 80 80 80 81 80 80 79 78 76 74 73 71 71 72 71 71 73 72 71 72 70 67 66 69 73 73 72 72 73 73 74
70 71 72 74 76 78 80 81 81 82 82 82 82 82 82 81 81 81 81 80 80 79 79 80 80 80 80 80 79 78 76 74 73 72 72 72 73 74 74 74 74 73 70 66 66 70 73 75 76 75 74 74
71 72 72 73 75 77 79 81 82 82 82 82 82 83 83 83 83 82 81 81 81 80 80 80 80 80 80 80 80 80 78 76 75 74 73 73 73 74 74 75 76 75 73 69 68 69 68 69 74 77 78 77
69 72 73 74 74 75 77 79 81 82 82 82 82 82 83 84 85 84 83 82 82 82 81 81 81 81 81 81 81 81 80 79 77 77 76 75 74 75 75 76 77 77 77 74 71 68 63 62 65 71 76 77
63 68 72 74 75 75 75 77 78 80 81 82 83 83 83 83 84 85 85 85 84 83 83 82 82 82 82 82 82 82 82 81 80 79 78 78 77 76 76 76 78 79 78 78 76 71 66 62 61 64 69 74
54 61 67 71 74 75 75 75 76 77 78 80 82 83 83 83 84 84 85 86 86 85 85 84 83 83 83 83 83 83 83 83 82 82 81 80 79 78 78 77 78 79 80 80 78 75 71 66 64 65 65 69
46 51 59 66 71 75 76 77 77 77 77 78 79 80 82 83 84 84 84 85 86 86 86 86 85 85 84 84 84 84 84 84 83 83 83 83 82 81 80 80 79 79 80 80 79 77 74 68 66 67 67 68
43 44 49 55 63 70 75 78 79 79 79 79 79 79 79 80 82 83 84 85 86 87 87 87 87 87 87 86 85 85 84 84 84 84 84 84 84 83 82 82 81 80 80 79 79 78 77 72 68 68 69 71
45 44 44 46 51 59 67 73 78 80 80 80 80 80 80 79 80 81 82 83 85 87 87 87 87 87 88 88 87 86 85 85 85 85 85 85 86 86 85 84 83 82 81 80 80 80 80 78 74 70 71 74
43 44 44 44 45 48 54 62 70 76 79 81 81 81 82 82 81 80 80 81 83 85 86 87 88 88 88 88 89 88 88 87 86 86 86 86 86 87 87 86 85 85 84 82 82 82 82 82 80 76 75 77
42 42 42 43 45 45 46 50 56 64 72 78 81 82 82 83 83 82 81 81 82 83 84 85 87 88 88 89 89 89 90 89 89 88 88 87 87 87 87 87 87 87 86 85 84 83 84 84 83 81 79 79
43 42 41 42 43 44 44 44 45 49 58 67 75 80 82 83 84 84 83 82 82 82 83 83 84 86 87 89 89 90 90 91 91 91 90 89 89 88 88 88 87 88 88 88 86 85 85 86 85 83 81 81
45 43 42 41 42 43 43 42 41 41 44 51 61 71 78 82 83 84 84 84 84 83 83 83 84 84 86 87 89 90 91 91 92 92 92 92 91 90 89 89 88 88 89 89 88 87 86 87 87 85 83 83
45 44 43 42 41 40 40 40 39 39 39 41 46 54 63 72 79 83 84 85 85 85 85 84 84 85 86 86 87 89 90 91 92 92 93 93 93 92 92 91 90 90 90 89 89 89 88 88 87 88 87 84
43 42 42 41 40 38 37 37 38 38 38 38 39 42 47 55 64 73 80 84 86 86 87 86 85 85 85 87 87 87 88 90 91 92 93 94 94 94 94 93 92 92 92 91 90 91 90 88 88 90 90 87
40 39 39 39 37 36 35 35 36 37 37 38 38 38 39 42 48 55 65 73 81 85 87 88 87 86 86 86 87 87 87 87 89 92 93 94 94 95 95 95 94 94 94 93 93 92 91 90 90 91 92 92
36 35 35 35 34 33 33 33 34 35 36 36 37 38 38 40 41 44 48 55 65 74 81 86 89 89 88 87 87 88 88 87 88 89 91 93 94 95 96 96 96 96 95 95 95 95 93 92 92 91 92 96
33 31 31 30 30 30 30 31 32 33 33 34 35 37 38 40 41 42 43 44 49 56 65 75 83 88 90 90 89 89 89 89 89 89 89 91 93 94 96 96 97 96 97 97 97 97 96 95 94 93 93 95
33 30 28 27 26 26 26 27 29 30 32 32 33 34 36 38 40 41 42 43 44 46 50 57 66 76 84 89 91 91 89 89 89 90 90 90 91 93 95 96 97 97 97 98 98 98 98 98 97 96 95 96
Wind_Direction
257 256 253 252 251 250 249 248 246 245 247 249 250 250 250 249 248 247 246 245 246 247 247 246 245 243 241 240 240 240 240 240 239 238 238 238 239 239 239 240 241 242 241 240 239 239 238 238 238 237 237 237
256 255 254 252 251 250 249 248 247 245 245 246 248 249 249 249 249 249 248 248 247 248 247 247 247 247 246 245 244 244 243 241 241 241 239 238 239 239 238 239 240 241 242 241 239 239 238 237 237 237 236 236
254 253 252 251 250 249 249 248 248 246 244 244 245 247 248 248 249 249 248 248 248 248 248 249 249 249 249 248 247 246 246 243 242 242 242 240 238 238 238 239 240 240 241 242 241 239 238 237 237 237 236 235
253 252 251 250 249 248 248 248 247 247 245 244 243 244 245 246 247 248 248 248 248 247 247 248 250 250 250 250 249 248 248 247 244 243 243 242 241 238 237 238 239 240 240 241 242 241 239 238 237 237 236 235
253 251 250 249 248 247 246 245 245 245 245 244 243 242 243 244 245 246 247 247 247 247 247 247 248 249 250 250 250 249 249 248 247 246 244 243 243 241 239 238 238 238 239 240 240 241 240 239 238 237 237 237
253 251 250 249 248 247 246 244 243 243 243 243 243 242 242 242 243 243 245 246 246 246 247 247 247 247 248 249 249 248 248 248 248 248 246 245 244 243 241 240 239 239 238 239 239 240 240 239 238 237 237 237
253 252 250 249 249 248 247 246 244 243 243 242 242 242 242 242 242 242 243 244 245 245 245 245 246 246 246 247 248 247 246 247 247 248 247 246 245 245 244 243 241 240 239 239 238 239 239 239 238 237 237 236
252 251 250 249 249 249 248 247 246 245 244 243 242 242 242 242 242 242 242 242 243 243 244 244 244 245 245 246 246 246 246 245 245 246 247 247 246 246 246 246 245 243 242 240 239 239 239 238 238 237 237 236
251 251 250 249 249 249 249 248 247 247 245 244 243 242 242 242 242 242 242 242 242 242 243 243 243 243 244 244 244 245 245 245 244 244 244 245 246 246 246 247 248 247 245 243 241 240 239 239 238 237 237 237
250 250 249 249 249 249 249 249 248 247 246 245 244 242 242 242 242 242 242 242 242 242 242 242 242 242 242 242 243 243 243 244 243 242 242 243 243 241 241 243 245 247 247 245 243 241 240 240 239 238 237 237
250 249 249 248 248 248 248 248 247 246 246 245 244 243 242 242 242 242 242 241 241 242 242 242 241 241 241 241 241 241 241 242 242 242 240 239 238 236 235 235 235 240 244 245 243 241 240 240 240 239 238 237
250 249 248 247 247 247 247 247 247 246 245 245 244 243 242 242 242 242 241 241 241 241 241 241 241 241 240 240 239 239 239 240 240 241 239 236 235 235 234 232 232 235 239 243 244 242 240 239 239 239 239 238
251 250 249 248 247 247 247 247 247 247 246 245 245 245 244 243 242 242 241 241 241 240 240 240 240 240 240 239 239 238 237 237 238 238 238 236 234 234 234 232 232 232 235 240 242 243 243 241 240 240 239 239
252 251 250 250 249 248 248 248 249 249 249 248 246 246 245 244 244 243 242 242 241 240 240 240 239 239 239 239 238 237 236 235 235 235 235 235 234 234 233 232 232 232 233 236 240 242 244 245 244 242 241 240
252 252 251 251 250 250 249 249 249 249 250 250 248 247 246 245 245 244 243 242 242 241 240 240 239 239 239 238 238 237 236 234 234 233 233 233 233 233 233 232 231 231 231 233 237 241 244 246 247 245 243 241
255 253 253 252 252 251 251 251 250 250 250 250 250 248 247 246 245 244 244 243 242 242 241 240 239 239 238 238 238 236 236 234 233 233 232 232 231 231 232 231 231 231 231 232 234 237 240 243 247 248 246 242
259 255 253 253 253 253 253 253 252 251 251 250 250 249 248 247 246 245 244 244 243 242 241 240 239 239 239 238 238 237 236 235 234 232 232 232 231 230 231 231 231 230 231 232 233 234 235 237 242 247 249 246
265 261 256 254 253 253 253 254 253 252 252 251 251 250 249 248 247 246 245 245 244 243 242 241 240 239 239 238 238 237 236 235 234 233 232 232 231 231 230 230 231 230 230 231 232 233 232 233 235 239 245 248
273 267 262 258 254 253 252 252 253 252 252 252 251 251 250 249 248 247 246 245 245 245 244 243 242 241 239 238 238 237 237 236 235 234 234 233 232 231 231 230 230 230 230 230 231 231 229 229 232 236 240 244
282 276 269 264 259 256 253 252 251 252 251 251 251 251 251 251 249 247 246 245 245 245 245 244 243 242 241 239 238 238 237 237 236 235 234 234 233 232 231 231 230 230 230 230 230 229 227 226 228 233 236 239
287 283 278 272 266 261 257 254 252 251 251 251 251 251 251 251 251 249 247 246 245 245 244 244 244 243 243 241 240 239 238 237 237 236 235 234 234 233 232 231 231 230 230 230 229 228 227 226 226 229 233 236
294 288 282 278 273 268 262 258 255 252 251 251 251 250 250 250 250 250 249 248 246 245 244 244 244 244 244 243 242 240 239 238 237 237 236 235 235 234 233 232 232 231 230 230 229 228 228 227 226 227 230 235
299 294 288 281 277 273 269 264 259 255 253 251 251 251 250 250 250 250 250 249 248 247 245 244 244 244 244 244 243 242 241 239 238 237 237 236 235 235 234 233 233 232 231 230 229 228 228 227 227 227 229 233
297 295 291 285 279 275 272 270 266 261 257 253 252 251 251 250 250 249 249 249 249 248 247 245 244 243 243 243 243 243 242 241 239 238 237 237 236 235 235 234 234 233 233 231 230 229 228 227 226 226 227 230
295 292 289 285 282 278 275 272 270 268 265 259 255 252 251 251 250 250 250 249 249 249 248 247 246 244 243 243 243 243 243 242 241 240 238 237 237 236 235 235 234 234 234 233 231 230 229 228 227 226 226 229
294 289 286 284 283 283 280 275 272 270 268 266 263 258 255 252 251 250 250 250 249 249 248 247 247 246 244 243 242 242 242 242 242 241 240 239 238 237 236 235 235 235 234 234 233 232 230 229 228 226 225 227
298 292 287 284 283 284 283 279 274 270 267 265 265 265 262 258 255 252 251 250 250 249 249 248 247 247 246 245 243 242 242 242 243 242 241 240 239 237 237 236 235 235 235 234 234 233 232 231 229 227 224 225
306 298 292 286 283 283 283 281 277 273 269 266 264 264 264 263 261 257 254 252 251 250 249 249 248 247 247 247 246 244 242 241 242 242 242 242 241 239 237 236 235 235 235 234 234 234 233 232 231 229 226 225
315 307 299 292 286 283 283 282 280 277 274 271 268 266 264 264 263 262 260 257 254 252 251 249 248 248 247 247 247 246 244 242 241 241 241 242 242 241 239 237 236 235 235 235 234 234 234 233 233 232 230 228
324 316 308 300 292 286 286 286 283 280 277 275 272 269 266 264 263 263 263 262 260 258 255 252 250 248 248 247 246 246 246 245 243 241 240 241 241 242 241 240 237 236 235 234 234 234 234 234 234 233 232 231
332 326 318 309 300 292 289 290 288 283 279 277 276 274 271 268 265 264 264 263 262 261 260 257 254 251 249 247 247 246 246 245 245 244 241 240 240 240 241 241 240 238 236 235 234 234 234 234 234 233 233 232